This is the latest recevied weather packets stored in our database for station/object K8JMX-13. If no packets are shown the sender has not sent any weather packets the latest 1 day(s).
| Time | Temp. | Humidity | Pressure | Rain* | Wind** | Luminosity | Snow |
|---|---|---|---|---|---|---|---|
| 1778083021 | 12.78° C | 50% | 1011 hPa | 0 mm | - | 238 W/m² | - |
| 1778082718 | 12.78° C | 52% | 1010.9 hPa | 0 mm | - | 232 W/m² | - |
| 1778080974 | 11.67° C | 58% | 1010.9 hPa | 0 mm | - | 263 W/m² | - |
| 1778080369 | 11.67° C | 61% | 1010.6 hPa | 0 mm | - | 237 W/m² | - |
| 1778079763 | 11.67° C | 60% | 1010.3 hPa | 0 mm | - | 225 W/m² | - |
| 1778079156 | 11.11° C | 63% | 1010.3 hPa | 0 mm | - | 239 W/m² | - |
| 1778076435 | 10° C | 70% | 1010 hPa | 0 mm | - | 187 W/m² | - |
| 1778074615 | 8.89° C | 74% | 1009.6 hPa | 0 mm | - | 151 W/m² | - |
| 1778074009 | 8.89° C | 76% | 1009.5 hPa | 0 mm | - | 150 W/m² | - |
| 1778072192 | 8.33° C | 86% | 1009.6 hPa | 0 mm | - | 108 W/m² | - |
| 1778071889 | 8.89° C | 85% | 1009.5 hPa | 0 mm | - | 89 W/m² | - |
| 1778071587 | 8.33° C | 84% | 1009.3 hPa | 0 mm | - | 87 W/m² | - |
| 1778070982 | 8.33° C | 85% | 1009 hPa | 0 mm | - | 36 W/m² | - |
| 1778070075 | 8.33° C | 88% | 1008.3 hPa | 0 mm | - | 100 W/m² | - |
| 1778066746 | 8.33° C | 91% | 1007.8 hPa | 0 mm | - | 9 W/m² | - |
| 1778066443 | 8.33° C | 91% | 1007.4 hPa | 0 mm | - | 12 W/m² | - |
| 1778065536 | 7.78° C | 91% | 1007.1 hPa | 0 mm | - | 5 W/m² | - |
| 1778064022 | 7.78° C | 91% | 1007.5 hPa | 0 mm | - | 1 W/m² | - |
| 1778063719 | 8.33° C | 91% | 1007.6 hPa | 0 mm | - | 1 W/m² | - |
| 1778062811 | 7.78° C | 91% | 1007.1 hPa | 0 mm | - | 0 W/m² | - |
| 1778060089 | 7.78° C | 91% | 1006.3 hPa | 0 mm | - | 0 W/m² | - |
| 1778059786 | 8.33° C | 91% | 1006 hPa | 0 mm | - | 0 W/m² | - |
| 1778059484 | 7.78° C | 91% | 1006.5 hPa | 0 mm | - | 0 W/m² | - |
| 1778059180 | 8.33° C | 91% | 1006.7 hPa | 0 mm | - | 0 W/m² | - |
| 1778058273 | 7.78° C | 91% | 1006 hPa | 0 mm | - | 0 W/m² | - |
* Rain latest hour (hover to see other rain measurements)
** Current wind speed in m/s (hover to see current wind gust speed)